This is the latest recevied weather packets stored in our database for station/object G4KVI. If no packets are shown the sender has not sent any weather packets the latest 10 day(s).
| Time | Temp. | Humidity | Pressure | Rain* | Wind** | Luminosity | Snow |
|---|---|---|---|---|---|---|---|
| 1777873503 | 11.67° C | 90% | 1014.6 hPa | 0 mm | - | 32 W/m² | - |
| 1777873203 | 11.67° C | 90% | 1014.5 hPa | 0 mm | - | 25 W/m² | - |
| 1777872903 | 11.67° C | 90% | 1014.5 hPa | 0 mm | - | 14 W/m² | - |
| 1777872603 | 11.67° C | 90% | 1014.5 hPa | 0 mm | - | 9 W/m² | - |
| 1777872303 | 11.67° C | 90% | 1014.6 hPa | 0 mm | - | 7 W/m² | - |
| 1777872003 | 11.67° C | 90% | 1014.6 hPa | 0 mm | - | 7 W/m² | - |
| 1777871703 | 11.67° C | 90% | 1014.4 hPa | 0 mm | - | 7 W/m² | - |
| 1777871403 | 11.67° C | 90% | 1014.3 hPa | 0 mm | - | 6 W/m² | - |
| 1777871104 | 11.67° C | 90% | 1014.2 hPa | 0 mm | - | 5 W/m² | - |
| 1777870803 | 11.67° C | 90% | 1014.2 hPa | 0 mm | - | 4 W/m² | - |
| 1777870503 | 11.67° C | 90% | 1014.3 hPa | 0 mm | - | 4 W/m² | - |
| 1777870203 | 11.67° C | 90% | 1014.4 hPa | 0 mm | - | 3 W/m² | - |
| 1777869903 | 11.67° C | 90% | 1014.3 hPa | 0 mm | - | 2 W/m² | - |
| 1777869603 | 11.67° C | 90% | 1014.3 hPa | 0 mm | - | 1 W/m² | - |
| 1777869303 | 11.67° C | 90% | 1014.3 hPa | 0 mm | - | 0 W/m² | - |
| 1777869003 | 11.67° C | 90% | 1014.3 hPa | 0 mm | - | 0 W/m² | - |
| 1777868704 | 11.67° C | 91% | 1014.4 hPa | 0 mm | - | 0 W/m² | - |
| 1777868403 | 11.67° C | 90% | 1014.3 hPa | 0 mm | - | 0 W/m² | - |
| 1777868103 | 11.67° C | 91% | 1014.3 hPa | 0 mm | - | 0 W/m² | - |
| 1777867803 | 11.67° C | 91% | 1014.5 hPa | 0 mm | - | 0 W/m² | - |
| 1777867503 | 11.67° C | 91% | 1014.5 hPa | 0 mm | - | 0 W/m² | - |
| 1777867203 | 11.67° C | 91% | 1014.1 hPa | 0 mm | - | 0 W/m² | - |
| 1777866903 | 11.67° C | 91% | 1014.4 hPa | 0 mm | - | 0 W/m² | - |
| 1777866603 | 11.67° C | 91% | 1014.2 hPa | 0 mm | - | 0 W/m² | - |
| 1777866303 | 11.11° C | 91% | 1014.2 hPa | 0 mm | - | 0 W/m² | - |
* Rain latest hour (hover to see other rain measurements)
** Current wind speed in m/s (hover to see current wind gust speed)